Probability
0 0 0 1 2 2 2 2 2 3 3 3 2 1 0 0 1 0 1 2 3 3 4 4 4 2 3 3 3 4 4 2 1 0 0 0 0 0 0 0 0 0 0
0 0 0 0 1 1 1 1 1 2 3 3 3 1 1 1 1 1 1 2 2 2 3 4 4 3 3 4 4 4 4 3 1 0 0 1 1 1 0 0 0 0 0
0 0 0 0 0 0 0 0 0 1 1 2 2 2 2 1 1 1 1 1 1 1 1 3 3 3 4 5 5 5 5 3 1 0 1 3 4 3 1 0 0 0 0
0 0 0 0 0 0 0 0 0 0 0 1 1 1 1 1 0 0 0 0 0 0 0 1 1 1 3 5 6 6 6 5 3 1 1 3 5 4 2 1 1 1 1
0 0 0 0 0 0 0 0 0 0 0 0 0 0 0 0 0 0 0 0 0 0 0 0 0 0 2 4 5 5 6 6 5 4 3 2 3 3 2 2 2 3 4
0 0 0 0 0 0 0 0 0 0 0 0 0 0 0 0 0 0 0 0 0 0 0 0 0 0 1 2 2 2 4 5 5 5 4 2 2 2 3 3 4 5 5
0 0 0 0 0 0 0 0 0 0 0 1 1 0 0 0 0 0 0 0 0 0 0 0 0 0 0 0 0 1 3 3 2 2 2 1 0 2 3 3 3 3 3
0 0 0 0 0 0 0 0 0 0 0 1 1 1 0 0 0 0 0 0 0 0 0 0 0 0 0 0 1 1 2 1 1 1 0 0 0 1 2 3 2 1 0
0 0 0 0 0 0 0 0 0 0 0 1 1 1 0 0 0 0 0 0 0 0 0 0 0 0 0 1 1 1 1 1 1 1 1 1 1 1 1 1 1 0 0
0 0 0 0 0 0 0 0 0 0 0 1 1 1 0 0 0 0 0 0 0 0 0 0 0 0 0 0 0 0 0 0 1 2 2 2 2 1 1 0 0 0 0
0 0 0 0 0 0 0 0 0 0 1 2 2 1 0 0 0 0 0 0 0 0 0 0 1 1 0 0 0 0 0 0 1 2 2 1 1 1 1 1 1 1 0
0 0 0 0 0 0 0 0 0 1 1 3 3 1 0 0 0 0 0 0 0 0 0 0 1 1 0 0 0 0 0 0 0 1 1 0 0 0 1 1 2 2 1
1 1 1 0 1 1 1 0 1 2 3 3 3 1 0 0 0 0 0 0 0 1 1 0 1 1 1 0 0 1 0 0 0 0 0 0 0 0 0 1 1 2 2
2 2 2 2 2 2 2 2 3 4 4 4 3 1 0 0 0 0 0 0 0 1 1 0 0 0 1 1 0 0 0 0 0 0 0 0 0 0 0 0 0 1 1
2 2 2 3 3 3 3 3 4 3 2 3 2 1 0 0 0 0 0 0 0 1 1 0 0 0 1 1 0 0 0 0 0 0 0 0 0 0 0 0 0 0 0
1 1 1 2 3 3 3 3 3 2 1 1 1 0 0 0 0 0 0 0 0 0 0 0 0 0 0 0 0 0 0 0 0 0 0 0 0 0 0 0 0 0 0
0 0 0 1 1 3 4 3 2 1 0 0 0 0 0 0 0 0 0 0 0 0 0 0 0 0 0 0 0 0 0 0 0 0 0 0 0 0 0 0 0 0 0
0 0 0 0 1 2 3 2 1 0 0 0 0 0 0 0 0 0 0 0 0 0 0 0 0 0 0 0 0 0 0 0 0 0 0 0 0 0 0 0 0 0 0
0 1 2 2 2 1 1 1 0 0 0 0 0 0 0 0 0 0 0 0 0 0 0 0 0 0 0 0 0 0 0 0 0 0 0 0 0 0 0 0 0 0 0
1 1 3 3 2 1 1 1 0 0 0 0 0 0 0 0 0 0 0 0 0 0 0 0 0 0 0 0 0 0 0 0 0 0 0 0 0 0 0 0 0 0 0
2 3 3 3 1 1 1 1 0 0 0 0 0 0 0 0 0 0 0 0 0 0 0 0 0 0 0 0 0 0 0 0 0 0 0 0 0 0 0 0 0 0 0
3 3 3 2 1 0 1 1 0 0 0 0 0 0 0 0 0 0 0 0 0 0 0 0 0 0 0 0 0 0 0 0 0 0 0 0 0 0 0 0 0 0 0
3 3 3 2 1 0 0 0 0 0 0 0 0 0 0 0 0 0 0 0 0 0 0 0 0 0 0 0 0 0 0 0 0 0 0 0 0 0 0 0 0 0 0
4 4 3 2 0 0 0 0 0 0 0 0 0 0 0 0 0 0 0 0 0 0 0 0 0 0 0 0 0 0 0 0 0 0 0 0 0 0 0 0 0 0 0
5 5 3 2 1 0 0 0 0 0 0 0 0 0 0 0 0 0 0 0 0 0 0 0 0 0 0 0 0 0 0 0 0 0 0 0 0 0 0 0 0 0 0
6 5 4 2 2 1 0 0 0 0 0 0 0 0 0 0 0 0 0 0 0 0 0 0 0 0 0 0 0 0 0 0 0 0 0 0 0 0 0 0 0 0 0
Wind_Speed
1 0 1 0 1 1 1 1 1 1 1 1 1 2 2 3 3 3 2 6 6 7 8 8 9 9 9 9 10 10 10 11 10 10 10 11 10 10 10 10 10 10 10
1 0 0 0 0 1 1 1 1 1 1 1 1 1 2 3 3 3 3 4 7 7 7 8 8 8 8 9 9 9 10 10 10 10 10 10 10 10 10 10 11 10 10
1 1 1 0 1 0 0 0 0 0 1 1 1 1 2 2 3 3 3 3 3 6 7 8 8 8 8 9 9 10 10 10 9 9 9 9 9 9 9 9 10 10 10
1 1 1 1 1 0 1 1 0 0 0 1 1 1 1 1 2 3 2 2 2 3 4 6 7 7 8 9 9 9 9 9 10 9 9 9 9 8 8 9 9 9 9
1 1 1 0 0 0 0 0 0 0 1 1 1 1 1 1 1 1 2 2 2 2 2 4 5 5 6 7 8 9 8 9 9 9 9 9 9 8 7 7 8 8 8
0 1 1 0 0 1 0 0 0 0 0 0 1 1 1 1 0 1 2 2 2 2 2 2 2 3 4 5 6 7 8 9 9 9 9 9 9 8 8 7 7 7 7
1 1 0 0 0 1 1 0 0 0 0 0 1 1 2 1 0 0 1 1 1 2 2 2 2 2 2 4 5 6 7 8 9 9 9 9 9 9 8 8 8 7 7
1 1 1 0 0 0 0 0 1 1 0 1 1 1 1 2 2 1 0 1 1 1 1 2 2 2 2 1 3 5 6 7 9 9 9 9 9 9 9 8 8 7 7
1 1 1 1 0 0 0 0 1 1 1 0 0 2 2 1 1 1 1 1 0 0 1 1 2 2 2 2 2 4 6 6 7 8 9 10 10 9 9 9 8 8 7
1 1 0 1 1 0 0 1 1 1 2 1 0 0 1 2 1 0 1 1 1 1 1 1 1 1 1 1 2 3 4 5 6 7 8 9 10 9 9 9 8 8 7
1 1 0 1 0 0 0 0 0 1 1 1 1 1 1 1 1 1 1 1 1 1 0 0 1 1 1 2 2 3 4 5 5 6 6 7 9 9 9 9 8 8 7
1 2 1 0 0 0 1 1 1 1 1 1 1 1 1 1 1 2 2 1 1 1 1 1 1 1 1 1 2 2 4 4 5 5 6 7 8 9 8 8 8 8 7
1 2 1 0 0 1 1 1 1 1 1 1 2 1 1 1 1 2 2 1 1 1 1 1 1 1 1 1 1 2 3 4 4 5 5 6 7 7 7 7 7 7 7
2 2 1 1 1 1 0 1 1 1 1 1 1 1 1 1 1 2 2 2 1 0 1 1 1 1 1 1 1 1 2 3 4 4 4 5 6 6 6 6 6 6 5
1 1 1 0 0 0 0 1 0 1 0 0 1 1 1 1 1 1 2 2 3 2 1 1 1 1 1 0 0 1 1 2 3 3 4 5 5 5 5 5 6 5 5
1 0 1 0 0 1 1 1 0 0 0 0 0 0 0 0 0 1 1 1 2 2 2 1 1 1 1 0 2 1 2 3 3 4 4 5 5 6 5 5 5 5 5
0 0 0 0 0 1 1 1 0 1 1 1 1 0 0 0 1 1 1 1 1 2 2 1 0 0 0 1 2 2 2 2 2 3 5 5 5 5 5 5 5 5 5
1 1 0 0 0 1 1 1 1 1 0 0 1 1 1 1 1 1 1 1 1 2 2 1 1 0 0 0 1 2 2 2 1 3 4 4 4 4 4 4 4 4 4
0 0 0 0 0 1 1 0 0 0 0 0 0 0 0 1 1 0 1 1 1 1 2 2 1 1 0 0 1 2 2 2 1 2 3 3 3 3 3 3 4 4 4
0 0 0 0 0 1 0 0 1 0 0 1 0 0 0 1 1 1 1 1 1 1 2 2 1 1 1 1 1 1 1 1 1 1 2 2 2 2 2 2 3 4 5
1 0 1 1 0 0 0 1 1 1 0 1 1 1 0 1 1 1 1 1 2 2 2 2 2 1 1 1 1 1 1 1 1 1 1 1 1 1 1 1 2 3 4
0 1 1 1 0 0 1 1 2 1 1 1 1 1 1 1 1 1 1 2 3 3 3 2 2 2 2 2 1 2 2 1 1 1 1 1 1 1 1 1 2 2 3
1 1 1 1 0 1 1 2 2 2 1 0 0 1 1 1 1 1 1 1 1 1 3 3 3 3 3 3 3 2 2 2 1 1 2 1 1 1 1 1 2 3 3
1 1 1 1 1 1 1 1 2 2 1 0 0 0 0 1 1 1 1 1 1 1 1 2 2 3 3 3 3 3 2 2 1 1 2 2 1 1 1 1 2 3 3
1 1 1 1 1 2 1 1 2 1 1 0 0 0 0 1 2 1 1 0 1 2 1 1 1 1 1 2 3 3 3 3 1 1 2 2 1 1 1 1 2 3 3
1 1 1 1 1 2 1 1 3 1 1 1 1 1 1 1 2 0 1 1 1 2 1 1 2 2 1 1 2 3 3 3 2 1 2 2 2 1 1 1 1 1 2
Wind_Direction
241 280 312 331 307 289 254 259 280 286 270 248 225 202 197 202 203 208 222 225 224 221 218 218 218 218 218 214 211 207 206 206 205 204 204 204 203 202 200 199 199 196 195
206 188 240 291 274 264 246 211 217 220 240 242 251 225 207 205 205 204 210 231 228 223 223 222 221 219 219 217 214 210 207 206 205 203 202 202 205 204 201 203 201 197 198
190 181 179 227 260 229 153 120 124 224 243 239 251 250 228 219 213 209 210 220 228 228 229 228 225 222 222 222 219 215 211 207 203 201 199 199 202 204 204 200 197 198 197
195 166 176 235 238 149 127 126 115 335 288 266 265 269 257 235 227 214 209 214 217 227 234 234 230 226 228 226 222 216 211 207 201 200 200 199 202 201 200 200 197 195 196
205 168 180 231 174 130 135 185 63 161 247 265 266 273 280 256 245 225 214 221 221 219 226 237 235 227 228 232 225 217 210 207 200 199 199 199 197 193 191 192 191 190 192
36 149 144 173 110 103 47 30 61 38 202 261 304 351 329 290 245 214 224 218 218 219 217 226 225 226 230 235 228 218 209 203 196 194 194 191 189 185 178 176 173 177 180
55 99 74 57 93 155 191 153 121 88 25 58 52 5 0 0 71 163 203 201 209 216 198 201 203 212 226 229 225 218 211 209 201 196 192 190 185 178 175 176 174 175 176
9 67 81 70 69 151 94 114 121 128 55 91 123 99 10 354 7 27 32 206 208 198 207 211 210 210 218 228 226 220 214 208 204 200 195 191 185 177 176 178 179 180 182
1 33 76 97 74 134 185 213 166 151 151 43 110 140 144 217 308 342 348 352 31 154 229 229 224 229 227 225 231 224 213 206 203 204 196 189 181 177 180 183 186 188 191
1 13 42 91 82 85 140 237 154 165 143 168 183 79 163 160 157 309 332 335 339 330 303 269 260 245 240 237 225 222 214 204 205 199 193 189 180 180 184 189 192 191 190
346 347 0 63 66 322 252 281 98 132 157 169 170 163 148 116 155 163 266 314 340 328 311 291 275 276 255 247 237 230 214 205 204 198 192 189 185 185 186 187 187 186 185
339 342 357 39 317 249 238 207 172 172 184 162 169 160 159 164 183 172 198 245 286 320 336 325 302 292 268 247 242 228 204 200 200 198 197 195 189 186 185 187 187 188 186
311 302 315 300 271 248 235 201 176 206 200 185 194 200 190 200 177 168 169 192 214 308 337 330 316 312 292 270 252 214 194 190 191 193 196 193 185 183 182 185 187 190 185
259 277 269 283 288 286 278 179 185 233 218 218 219 210 200 225 198 179 174 167 171 278 346 305 316 314 317 288 271 211 181 170 169 173 174 168 166 169 176 179 181 179 175
272 314 301 285 300 326 1 107 104 264 37 250 252 231 221 242 216 201 187 180 172 189 243 274 285 311 312 305 19 166 159 144 139 146 145 139 140 148 153 158 159 156 158
303 10 5 338 2 12 39 78 313 300 85 9 258 219 218 241 184 185 185 175 174 171 192 242 246 305 312 22 68 97 123 115 118 130 138 137 140 143 147 150 151 154 157
251 295 263 345 12 24 49 62 12 43 67 26 10 15 272 113 94 97 119 133 144 151 179 240 230 13 74 67 59 68 94 105 111 118 124 137 145 146 148 150 156 162 162
245 242 184 60 11 32 52 65 357 57 93 25 359 11 338 68 70 82 110 138 159 168 169 193 190 140 160 124 88 84 76 85 95 113 126 132 138 150 156 163 166 165 165
235 234 123 84 11 27 30 40 82 52 47 46 341 257 351 81 66 71 115 142 165 160 157 164 187 172 189 124 87 80 79 65 73 98 115 119 127 130 136 156 168 166 171
173 199 189 146 96 76 63 74 100 62 27 16 1 340 176 164 189 188 159 177 154 133 129 142 150 144 152 132 124 118 96 68 69 77 89 105 112 117 130 148 153 171 179
204 190 108 77 70 111 83 126 137 121 85 37 26 9 8 68 89 132 143 170 158 153 152 147 151 136 142 151 184 167 154 112 66 94 104 109 120 134 157 162 157 163 182
216 115 130 139 124 42 55 128 136 142 114 90 23 0 5 20 20 52 90 146 165 168 175 169 175 180 200 196 176 166 156 146 165 148 134 137 139 171 210 202 189 190 194
206 204 199 171 213 265 202 190 160 145 129 97 26 2 6 22 29 29 40 55 75 162 179 182 189 206 203 198 174 170 169 173 190 180 153 166 171 190 224 210 196 206 207
226 239 235 232 247 286 257 203 163 140 124 107 277 250 330 343 359 52 69 35 0 339 243 205 204 211 206 201 190 183 174 142 120 178 171 182 202 220 238 234 210 209 215
246 262 244 229 243 283 283 190 148 141 138 298 310 303 219 299 333 61 105 53 336 330 10 77 156 174 174 178 174 156 160 158 164 180 170 180 188 234 256 247 225 216 222
229 255 278 262 242 267 283 185 159 159 186 261 299 309 291 300 324 187 174 195 278 298 344 26 41 48 84 114 147 179 178 175 171 193 182 178 182 184 238 236 234 236 235